DW8297 Weather Reports


Display with metric or nautical units.
time (UTC)temp
F
wind
direction
speed
MPH
gust
MPH
rain 1hr
in
rain 24hr
in
rain mn
in
humidity
%
barometer
mb
20260506203135 -39 39 2.0 6.0 0.00 0.00 0.00 88 1011.2
20260506201630 -39 118 0.0 4.0 0.00 0.00 0.00 88 1011.4
20260506200131 -39 15 1.0 5.0 0.00 0.00 0.00 88 1011.5
20260506194611 -39 112 1.0 5.0 0.00 0.00 0.00 88 1011.7
20260506193842 -39 210 1.0 6.0 0.00 0.00 0.00 88 1011.7
20260506191610 -39 326 0.0 5.0 0.00 0.00 0.00 88 1011.9
20260506190832 -39 34 1.0 5.0 0.00 0.00 0.00 88 1012.1
20260506184600 -39 27 2.0 7.0 0.00 0.00 0.00 88 1012.1
20260506183056 -39 79 1.0 10.0 0.00 0.00 0.00 88 1012.3
20260506181558 -39 175 0.0 5.0 0.00 0.00 0.00 88 1012.4
20260506180050 -39 317 0.0 3.0 0.00 0.00 0.00 88 1012.5
20260506174542 -39 222 0.0 5.0 0.00 0.00 0.00 88 1012.7
20260506173042 -39 287 1.0 6.0 0.00 0.00 0.00 88 1012.6
20260506173037 -39 74 1.0 6.0 0.00 0.00 0.00 88 1012.6
20260506170803 -39 138 0.0 5.0 0.00 0.00 0.00 88 1012.7
20260506164525 -39 279 0.0 6.0 0.00 0.00 0.00 88 1012.7
20260506163022 -39 20 1.0 6.0 0.00 0.00 0.00 88 1013.0
20260506162239 -39 6 0.0 6.0 0.00 0.00 0.00 88 1013.1
20260506160008 -39 84 0.0 4.0 0.00 0.00 0.00 88 1013.8
20260506155233 -39 6 0.0 3.0 0.00 0.00 0.00 88 1014.0
20260506153728 -39 20 0.0 2.0 0.00 0.00 0.00 88 1014.0
20260506151434 -39 112 0.0 4.0 0.00 0.00 0.00 88 1013.7
20260506145929 -39 16 0.0 7.0 0.00 0.00 0.00 88 1013.7
20260506144419 -39 19 1.0 5.0 0.00 0.00 0.00 88 1013.8
20260506142919 -39 165 1.0 10.0 0.00 0.00 0.00 88 1013.8
20260506141418 -39 139 2.0 6.0 0.00 0.00 0.00 88 1013.8
20260506135910 -39 36 2.0 9.0 0.00 0.00 0.00 88 1013.7
20260506134404 -39 222 2.0 6.0 0.00 0.00 0.00 88 1013.6
20260506132906 -39 224 1.0 5.0 0.00 0.00 0.00 88 1013.7
20260506131405 -39 333 1.0 6.0 0.00 0.00 0.00 88 1013.8
20260506125903 -39 327 2.0 9.0 0.00 0.00 0.00 88 1014.0
20260506124407 -39 18 2.0 9.0 0.00 0.00 0.00 88 1014.0
20260506122850 -39 242 2.0 8.0 0.00 0.00 0.00 88 1013.9
20260506122120 -39 356 2.0 8.0 0.00 0.00 0.00 88 1013.8
20260506121454 -39 259 2.0 6.0 0.00 0.00 0.00 88 1013.6
20260506114347 -39 283 1.0 6.0 0.00 0.00 0.00 88 1013.5
20260506114337 -39 130 2.0 5.0 0.00 0.00 0.00 88 1013.5
20260506111335 -39 127 1.0 4.0 0.00 0.00 0.00 88 1013.5
20260506105834 -39 261 1.0 7.0 0.00 0.00 0.00 88 1013.4
20260506104334 -39 36 0.0 3.0 0.00 0.00 0.00 88 1013.4
20260506102834 -39 6 2.0 6.0 0.00 0.00 0.00 88 1013.4
20260506101328 -39 84 1.0 7.0 0.00 0.00 0.00 88 1013.4
20260506100536 -39 9 0.0 5.0 0.00 0.00 0.00 88 1013.3
20260506094300 -39 283 0.0 5.0 0.00 0.00 0.00 88 1013.4
20260506092745 -39 154 0.0 5.0 0.00 0.00 0.00 88 1013.5
20260506092015 -39 132 1.0 4.0 0.00 0.00 0.00 88 1013.4
20260506085745 -39 346 0.0 5.0 0.00 0.00 0.00 88 1013.5
20260506084230 -39 309 0.0 4.0 0.00 0.00 0.00 88 1013.5
20260506082727 -39 7 0.0 6.0 0.00 0.00 0.00 88 1013.5
20260506081225 -39 326 0.0 6.0 0.00 0.00 0.00 88 1013.6
20260506073442 -39 342 0.0 5.0 0.00 0.00 0.00 88 1013.8
20260506071210 -39 346 1.0 6.0 0.00 0.00 0.00 88 1013.8
20260506061203 -39 174 0.0 4.0 0.00 0.00 0.00 88 1014.1
20260506050428 -39 307 0.0 0.0 0.00 0.00 0.00 88 1014.7
20260506044927 -39 357 0.0 3.0 0.00 0.00 0.00 88 1014.7
20260506042653 -39 329 0.0 3.0 0.00 0.00 0.00 88 1014.8
20260506041156 -39 7 0.0 2.0 0.00 0.00 0.00 88 1014.8
20260506035646 -39 7 0.0 2.0 0.00 0.00 0.00 88 1014.7
20260506034147 -39 315 0.0 3.0 0.00 0.00 0.00 88 1014.7
20260506032645 -39 288 1.0 5.0 0.00 0.00 0.00 88 1014.5
20260506031141 -39 246 1.0 3.0 0.00 0.00 0.00 88 1014.5
20260506025639 -39 218 2.0 6.0 0.00 0.00 0.00 88 1014.6
20260506024136 -39 31 1.0 6.0 0.00 0.00 0.00 88 1014.6
20260506022633 -39 320 1.0 5.0 0.00 0.00 0.00 88 1014.7
20260506021903 -39 293 1.0 4.0 0.00 0.00 0.00 88 1014.5
20260506015631 -39 303 0.0 5.0 0.00 0.00 0.00 88 1014.4
20260506014129 -39 301 0.0 4.0 0.00 0.00 0.00 88 1014.3
20260506012628 -39 288 0.0 4.0 0.00 0.00 0.00 88 1014.0
20260506011125 -39 170 1.0 5.0 0.00 0.00 0.00 88 1013.8
20260506005621 -39 322 1.0 4.0 0.00 0.00 0.00 88 1013.7
20260506004114 -39 343 2.0 6.0 0.00 0.00 0.00 88 1013.6
20260506002611 -39 320 2.0 8.0 0.00 0.00 0.00 88 1013.5
20260506001101 -39 11 2.0 5.0 0.00 0.00 0.00 88 1013.3
20260505235601 -39 29 1.0 8.0 0.00 0.00 0.00 88 1013.0
20260505234100 -39 348 2.0 6.0 0.00 0.00 0.00 88 1012.9
20260505232551 -39 298 1.0 5.0 0.00 0.00 0.00 88 1013.0
20260505231048 -39 218 2.0 11.0 0.00 0.00 0.00 88 1012.9
20260505230320 -39 303 2.0 5.0 0.00 0.00 0.00 88 1012.9
20260505224045 -39 114 2.0 9.0 0.00 0.00 0.00 88 1012.8
20260505222544 -39 234 2.0 9.0 0.00 0.00 0.00 88 1012.9
20260505221041 -39 221 3.0 11.0 0.00 0.00 0.00 88 1012.9
20260505215542 -39 123 3.0 9.0 0.00 0.00 0.00 88 1012.8
20260505214042 -39 10 3.0 10.0 0.00 0.00 0.00 88 1012.8
20260505212538 -39 105 3.0 9.0 0.00 0.00 0.00 88 1012.8
20260505211040 -39 300 2.0 6.0 0.00 0.00 0.00 88 1012.8
20260505205539 -39 342 3.0 13.0 0.00 0.00 0.00 88 1012.7
20260505204043 -39 52 3.0 9.0 0.00 0.00 0.00 88 1012.8
20260505204039 -39 197 2.0 8.0 0.00 0.00 0.00 88 1012.6